Location: Kershaw
(34.5481°N, 80.5823°W)
Time: 04:44:27
(UTC+00:00)

Explorer 7 - Pass Details

Date: 05 October 2022
Orbit: 481 x 665 km, 50.3° (Epoch: 30 November)

Event Time Altitude Azimuth Distance (km) Brightness Sun altitude
Rises 14:39:33 0° 236° (WSW) 2,964 10.4 36.9°
Reaches altitude 10° 14:41:53 10° 240° (WSW) 2,068 9.7 37.3°
Maximum altitude 14:46:39 64° 322° (NW) 736 7.7 38.0°
Drops below altitude 10° 14:51:27 10° 44° (NE) 2,082 9.9 38.7°
Sets 14:53:49 0° 47° (NE) 2,985 10.6 39.1°
